DW9151 Weather Reports


Display with metric or nautical units.
time (UTC)temp
F
wind
direction
speed
MPH
gust
MPH
rain 1hr
in
rain 24hr
in
rain mn
in
humidity
%
barometer
mb
20260901133605 61 144 4.0 8.0 0.00 0.00 0.00 80 1019.4
20260901132104 60 117 7.0 12.0 0.00 0.00 0.00 79 1019.3
20260901131604 59 134 3.0 8.0 0.00 0.00 0.00 81 1019.3
20260901130605 60 122 5.0 9.0 0.00 0.00 0.00 78 1019.5
20260901130104 60 132 5.0 8.0 0.00 0.00 0.00 78 1019.5
20260901125605 60 136 5.0 12.0 0.00 0.00 0.00 78 1019.5
20260901125104 60 128 5.0 10.0 0.00 0.00 0.00 80 1019.5
20260901124604 60 91 5.0 10.0 0.00 0.00 0.00 80 1019.6
20260901123605 60 127 4.0 10.0 0.00 0.00 0.00 79 1019.6
20260901123104 59 123 6.0 10.0 0.00 0.00 0.00 78 1019.6
20260901122105 60 118 7.0 12.0 0.00 0.00 0.00 76 1019.6
20260901121104 60 118 5.0 9.0 0.00 0.00 0.00 78 1019.6
20260901120104 60 136 5.0 9.0 0.00 0.00 0.00 79 1019.7
20260901115605 59 127 6.0 9.0 0.00 0.00 0.00 79 1019.7
20260901115104 59 130 5.0 8.0 0.00 0.00 0.00 77 1019.7
20260901114604 60 131 5.0 8.0 0.00 0.00 0.00 76 1019.7
20260901114104 60 125 6.0 12.0 0.00 0.00 0.00 77 1019.7
20260901113605 61 124 5.0 9.0 0.00 0.00 0.00 77 1019.7
20260901113104 61 118 5.0 12.0 0.00 0.00 0.00 76 1019.6
20260901112104 62 139 4.0 9.0 0.00 0.00 0.00 75 1019.6
20260901111604 62 119 3.0 9.0 0.00 0.00 0.00 75 1019.7
20260901111104 62 123 5.0 10.0 0.00 0.00 0.00 76 1019.7
20260901110105 62 127 2.0 8.0 0.00 0.00 0.00 78 1019.7
20260901105604 62 116 3.0 8.0 0.00 0.00 0.00 77 1019.8
20260901105104 61 149 2.0 7.0 0.00 0.00 0.00 78 1019.7
20260901104604 61 146 3.0 7.0 0.00 0.00 0.00 78 1019.8
20260901104104 61 129 5.0 8.0 0.00 0.00 0.00 77 1019.7
20260901103604 60 53 3.0 6.0 0.00 0.00 0.00 78 1019.7
20260901103104 60 128 4.0 9.0 0.00 0.00 0.00 78 1019.7
20260901101606 60 128 5.0 9.0 0.00 0.00 0.00 76 1019.9
20260901101106 60 73 2.0 9.0 0.00 0.00 0.00 78 1019.9
20260901100606 60 135 5.0 9.0 0.00 0.00 0.00 76 1019.9
20260901100106 60 121 6.0 10.0 0.00 0.00 0.00 77 1019.9
20260901095606 60 132 6.0 12.0 0.00 0.00 0.00 78 1019.9
20260901095105 60 124 5.0 12.0 0.00 0.00 0.00 78 1020.0
20260901094606 60 115 6.0 12.0 0.00 0.00 0.00 77 1020.0
20260901094106 60 122 5.0 10.0 0.00 0.00 0.00 76 1020.0
20260901093605 60 122 5.0 8.0 0.00 0.00 0.00 78 1020.1
20260901093106 59 144 3.0 8.0 0.00 0.00 0.00 79 1020.0
20260901092606 58 121 5.0 10.0 0.00 0.00 0.00 79 1020.0
20260901092106 57 113 4.0 9.0 0.00 0.00 0.00 79 1020.0
20260901091605 57 124 3.0 13.0 0.00 0.00 0.00 79 1019.9
20260901091105 57 116 3.0 9.0 0.00 0.00 0.00 78 1019.9
20260901090606 58 123 7.0 12.0 0.00 0.00 0.00 75 1019.9
20260901090106 59 128 4.0 9.0 0.00 0.00 0.00 76 1019.8
20260901085106 60 115 6.0 10.0 0.00 0.00 0.00 77 1019.6
20260901084606 59 86 4.0 9.0 0.00 0.00 0.00 77 1019.6
20260901084106 59 120 4.0 9.0 0.00 0.00 0.00 79 1019.7
20260901083606 59 124 3.0 8.0 0.00 0.00 0.00 80 1019.5
20260901083105 58 108 2.0 8.0 0.00 0.00 0.00 80 1019.5
20260901082606 57 119 5.0 9.0 0.00 0.00 0.00 81 1019.4
20260901082106 57 106 3.0 9.0 0.00 0.00 0.00 82 1019.4
20260901081106 58 87 5.0 10.0 0.00 0.00 0.00 80 1019.2
20260901080106 58 95 3.0 6.0 0.00 0.00 0.00 79 1019.1
20260901073606 58 109 3.0 10.0 0.00 0.00 0.00 82 1018.9
20260901072605 57 104 4.0 9.0 0.00 0.00 0.00 83 1018.9
20260901072106 57 94 3.0 7.0 0.00 0.00 0.00 84 1018.9
20260901071605 57 79 5.0 9.0 0.00 0.00 0.00 83 1018.9
20260901071105 57 72 3.0 9.0 0.00 0.00 0.00 85 1018.8
20260901070606 56 105 5.0 9.0 0.00 0.00 0.00 85 1018.7
20260901070105 56 64 3.0 7.0 0.00 0.00 0.00 85 1018.8
20260901064606 55 144 3.0 6.0 0.00 0.00 0.00 85 1018.7
20260901064105 55 124 3.0 8.0 0.00 0.00 0.00 84 1018.7
20260901063605 56 127 3.0 6.0 0.00 0.00 0.00 84 1018.7
20260901063106 56 122 5.0 9.0 0.00 0.00 0.00 83 1018.7
20260901062605 56 157 3.0 5.0 0.00 0.00 0.00 82 1018.7
20260901062105 57 162 3.0 6.0 0.00 0.00 0.00 81 1018.6
20260901061106 56 160 3.0 3.0 0.00 0.00 0.00 80 1018.6
20260901060606 55 4 2.0 5.0 0.00 0.00 0.00 82 1018.5
20260901055605 54 3 3.0 5.0 0.00 0.00 0.00 82 1018.5
20260901055106 53 3 3.0 5.0 0.00 0.00 0.00 82 1018.5
20260901054606 53 159 3.0 5.0 0.00 0.00 0.00 81 1018.3
20260901054105 54 161 2.0 5.0 0.00 0.00 0.00 82 1018.4
20260901053605 54 162 2.0 5.0 0.00 0.00 0.00 83 1018.3
20260901053106 54 139 4.0 5.0 0.00 0.00 0.00 81 1018.2
20260901052605 55 162 3.0 5.0 0.00 0.00 0.00 79 1018.1
20260901052105 55 4 1.0 3.0 0.00 0.00 0.00 79 1018.1
20260901051606 55 11 3.0 5.0 0.00 0.00 0.00 78 1018.0
20260901050605 55 0 4.0 6.0 0.00 0.00 0.00 80 1017.9
20260901050105 55 0 5.0 7.0 0.00 0.00 0.00 79 1017.9
20260901045606 55 0 4.0 6.0 0.00 0.00 0.00 80 1017.8
20260901045105 55 0 3.0 5.0 0.00 0.00 0.00 81 1017.8
20260901044106 55 3 4.0 5.0 0.00 0.00 0.00 82 1017.7
20260901043605 55 1 4.0 5.0 0.00 0.00 0.00 85 1017.6
20260901043105 55 1 3.0 5.0 0.00 0.00 0.00 85 1017.7
20260901042605 55 2 3.0 3.0 0.00 0.00 0.00 85 1017.6
20260901042106 55 2 1.0 3.0 0.00 0.00 0.00 83 1017.6
20260901041605 55 15 2.0 3.0 0.00 0.00 0.00 84 1017.6
20260901041105 55 0 3.0 5.0 0.00 0.00 0.00 84 1017.5
20260901040106 55 0 5.0 5.0 0.00 0.00 0.00 84 1017.4
20260901035605 55 0 3.0 6.0 0.00 0.00 0.00 85 1017.4
20260901035106 55 0 5.0 7.0 0.00 0.00 0.00 85 1017.4
20260901034605 55 163 3.0 5.0 0.00 0.00 0.00 85 1017.4
20260901034106 55 164 5.0 6.0 0.00 0.00 0.00 85 1017.4
20260901033606 55 156 5.0 6.0 0.00 0.00 0.00 85 1017.4
20260901033105 55 164 5.0 7.0 0.00 0.00 0.00 85 1017.4
20260901032606 55 158 5.0 6.0 0.00 0.00 0.00 85 1017.3
20260901032106 55 160 5.0 6.0 0.00 0.00 0.00 85 1017.4
20260901031606 55 159 3.0 5.0 0.00 0.00 0.00 85 1017.4
20260901031105 55 150 4.0 6.0 0.00 0.00 0.00 85 1017.3
20260901030605 55 162 5.0 7.0 0.00 0.00 0.00 85 1017.4
20260901030105 55 298 3.0 5.0 0.00 0.00 0.00 85 1017.4
20260901025606 55 304 3.0 3.0 0.00 0.00 0.00 85 1017.5
20260901025106 55 275 3.0 5.0 0.00 0.00 0.00 85 1017.5
20260901024606 55 296 2.0 3.0 0.00 0.00 0.00 85 1017.6
20260901024108 55 340 1.0 3.0 0.00 0.00 0.00 85 1017.5
20260901023605 55 304 1.0 3.0 0.00 0.00 0.00 85 1017.5
20260901023106 55 286 3.0 3.0 0.00 0.00 0.00 85 1017.5
20260901022605 55 296 3.0 3.0 0.00 0.00 0.00 85 1017.5
20260901022105 54 291 2.0 3.0 0.00 0.00 0.00 85 1017.5
20260901021106 54 333 2.0 3.0 0.00 0.00 0.00 85 1017.5
20260901020106 53 307 1.0 3.0 0.00 0.00 0.00 83 1017.5
20260901015605 53 287 0.0 2.0 0.00 0.00 0.00 80 1017.5
20260901015106 54 312 1.0 3.0 0.00 0.00 0.00 78 1017.4
20260901014605 54 286 3.0 5.0 0.00 0.00 0.00 78 1017.4
20260901014105 54 287 3.0 5.0 0.00 0.00 0.00 78 1017.4
20260901013605 54 321 4.0 6.0 0.00 0.00 0.00 80 1017.4
20260901013105 54 295 5.0 6.0 0.00 0.00 0.00 81 1017.3
20260901012605 54 312 5.0 6.0 0.00 0.00 0.00 82 1017.3
20260901012105 54 172 0.0 0.0 0.00 0.00 0.00 84 1017.4
20260901011105 54 160 0.0 0.0 0.00 0.00 0.00 82 1017.4
20260901010605 54 155 0.0 0.0 0.00 0.00 0.00 80 1017.4
20260901010105 54 84 0.0 0.0 0.00 0.00 0.00 78 1017.4
20260901005605 54 142 0.0 2.0 0.00 0.00 0.00 78 1017.4
20260901005105 54 87 1.0 2.0 0.00 0.00 0.00 77 1017.3
20260901004105 55 155 1.0 2.0 0.00 0.00 0.00 76 1017.3
20260901003105 56 162 1.0 3.0 0.00 0.00 0.00 77 1017.3
20260901002106 56 159 2.0 3.0 0.00 0.00 0.00 77 1017.2
20260901001105 56 147 1.0 3.0 0.00 0.00 0.00 78 1017.1
20260901000605 56 157 0.0 3.0 0.00 0.00 0.00 78 1017.1
20260901000105 56 163 2.0 5.0 0.00 0.00 0.00 78 1017.1
20260831235605 56 161 4.0 7.0 0.00 0.00 0.00 78 1017.1
20260831235105 56 151 1.0 3.0 0.00 0.00 0.00 79 1017.1
20260831234605 56 154 1.0 2.0 0.00 0.00 0.00 80 1017.1
20260831234105 56 165 1.0 5.0 0.00 0.00 0.00 80 1017.1
20260831233605 56 163 3.0 6.0 0.00 0.00 0.00 80 1017.0
20260831233105 56 167 1.0 3.0 0.00 0.00 0.00 81 1017.1
20260831232605 56 169 0.0 0.0 0.00 0.00 0.00 82 1017.1
20260831232105 56 167 0.0 3.0 0.00 0.00 0.00 82 1017.0
20260831231106 56 160 5.0 6.0 0.00 0.00 0.00 82 1016.8
20260831230606 56 206 2.0 3.0 0.00 0.00 0.00 84 1016.7
20260831230105 56 306 2.0 5.0 0.00 0.00 0.00 84 1016.6
20260831225605 56 291 1.0 3.0 0.00 0.00 0.00 84 1016.6
20260831225105 56 310 2.0 3.0 0.00 0.00 0.00 84 1016.6
20260831224606 56 230 2.0 3.0 0.00 0.00 0.00 84 1016.5
20260831224105 57 272 2.0 3.0 0.00 0.00 0.00 84 1016.6
20260831223605 57 285 2.0 3.0 0.00 0.00 0.00 84 1016.6
20260831222605 57 219 5.0 7.0 0.00 0.00 0.00 83 1016.5
20260831222105 56 191 5.0 8.0 0.00 0.00 0.00 83 1016.4
20260831221606 56 198 6.0 8.0 0.00 0.00 0.00 82 1016.4
20260831221105 56 204 4.0 6.0 0.00 0.00 0.00 81 1016.4
20260831220605 56 10 5.0 7.0 0.00 0.00 0.00 80 1016.4
20260831215105 56 136 5.0 7.0 0.00 0.00 0.00 80 1016.3
20260831214605 56 153 4.0 7.0 0.00 0.00 0.00 80 1016.3
20260831214105 56 114 5.0 8.0 0.00 0.00 0.00 81 1016.3
20260831213605 57 141 4.0 8.0 0.00 0.00 0.00 81 1016.3
20260831213105 57 162 5.0 9.0 0.00 0.00 0.00 83 1016.2
20260831212604 57 178 5.0 7.0 0.00 0.00 0.00 84 1016.2
20260831212105 57 184 5.0 12.0 0.00 0.00 0.00 84 1016.2
20260831211605 57 143 5.0 12.0 0.00 0.00 0.00 84 1016.1
20260831210605 57 164 4.0 7.0 0.00 0.00 0.00 82 1016.1
20260831210105 57 145 5.0 9.0 0.00 0.00 0.00 84 1016.0
20260831205605 57 138 7.0 10.0 0.00 0.00 0.00 84 1015.9
20260831204605 57 220 4.0 7.0 0.00 0.00 0.00 84 1015.8
20260831204105 57 125 6.0 8.0 0.00 0.00 0.00 84 1015.6
20260831203105 57 173 3.0 10.0 0.00 0.00 0.00 84 1015.5
20260831202605 57 148 5.0 10.0 0.00 0.00 0.00 84 1015.5
20260831202105 57 221 5.0 9.0 0.00 0.00 0.00 85 1015.4
20260831201605 57 324 5.0 8.0 0.00 0.00 0.00 85 1015.3
20260831201105 57 304 4.0 8.0 0.00 0.00 0.00 86 1015.3
20260831200605 57 266 6.0 12.0 0.00 0.00 0.00 86 1015.3
20260831200105 57 190 7.0 12.0 0.00 0.00 0.00 86 1015.4
20260831195605 57 141 5.0 9.0 0.00 0.00 0.00 85 1015.4
20260831195104 57 221 6.0 9.0 0.00 0.00 0.00 85 1015.3
20260831194105 57 212 7.0 12.0 0.00 0.00 0.00 85 1015.0
20260831193105 57 176 7.0 12.0 0.00 0.00 0.00 85 1015.0
20260831192605 57 276 6.0 10.0 0.00 0.00 0.00 85 1015.1
20260831192104 57 277 6.0 12.0 0.00 0.00 0.00 85 1015.0
20260831191605 57 331 6.0 12.0 0.00 0.00 0.00 85 1014.9
20260831191104 57 200 6.0 14.0 0.00 0.00 0.00 85 1014.9
20260831190605 57 136 6.0 12.0 0.00 0.00 0.00 85 1014.8
20260831190104 57 200 7.0 12.0 0.00 0.00 0.00 85 1014.7
20260831185605 57 329 6.0 12.0 0.00 0.00 0.00 86 1014.7
20260831184605 57 176 6.0 10.0 0.00 0.00 0.00 86 1014.5
20260831184105 57 315 6.0 10.0 0.00 0.00 0.00 86 1014.4
20260831183604 57 228 7.0 12.0 0.00 0.00 0.00 86 1014.4
20260831183107 57 329 7.0 12.0 0.00 0.00 0.00 86 1014.4
20260831182605 57 259 7.0 12.0 0.00 0.00 0.00 86 1014.4
20260831182104 57 281 5.0 9.0 0.00 0.00 0.00 86 1014.5
20260831181604 57 217 5.0 12.0 0.00 0.00 0.00 86 1014.5
20260831181105 57 288 6.0 9.0 0.00 0.00 0.00 86 1014.5
20260831180604 57 247 6.0 10.0 0.00 0.00 0.00 86 1014.6
20260831180104 58 4 5.0 9.0 0.00 0.00 0.00 86 1014.5
20260831175605 58 318 5.0 10.0 0.00 0.00 0.00 86 1014.5
20260831175105 58 196 6.0 12.0 0.00 0.00 0.00 86 1014.5
20260831174605 58 206 6.0 13.0 0.00 0.00 0.00 86 1014.5
20260831174105 58 125 10.0 16.0 0.00 0.00 0.00 86 1014.5
20260831173604 58 149 7.0 14.0 0.00 0.00 0.00 86 1014.5
20260831173104 58 232 6.0 12.0 0.00 0.00 0.00 86 1014.6
20260831172604 59 156 5.0 8.0 0.00 0.00 0.00 86 1014.6
20260831172104 59 172 7.0 15.0 0.00 0.00 0.00 86 1014.6
20260831171104 59 126 7.0 10.0 0.00 0.00 0.00 86 1014.8
20260831170604 59 141 9.0 13.0 0.00 0.00 0.00 86 1014.9
20260831170105 59 145 9.0 14.0 0.00 0.00 0.00 86 1014.9
20260831165105 59 178 6.0 8.0 0.00 0.00 0.00 86 1014.9
20260831164605 59 164 6.0 10.0 0.00 0.00 0.00 86 1014.9
20260831164105 59 248 4.0 8.0 0.00 0.00 0.00 86 1015.1
20260831163605 59 164 5.0 9.0 0.00 0.00 0.00 86 1015.1
20260831163104 59 141 6.0 12.0 0.00 0.00 0.00 86 1015.1
20260831162604 59 125 6.0 9.0 0.00 0.00 0.00 86 1015.1
20260831162104 59 158 6.0 12.0 0.00 0.00 0.00 86 1015.1
20260831161604 60 155 6.0 10.0 0.00 0.00 0.00 86 1015.1
20260831161105 60 15 5.0 9.0 0.00 0.00 0.00 86 1015.1
20260831160605 60 167 3.0 7.0 0.00 0.00 0.00 86 1015.1
20260831155604 60 18 5.0 9.0 0.00 0.00 0.00 86 1015.3
20260831155105 60 154 6.0 10.0 0.00 0.00 0.00 85 1015.2
20260831154605 60 136 6.0 9.0 0.00 0.00 0.00 85 1015.1
20260831154105 61 154 5.0 10.0 0.00 0.00 0.00 86 1015.2
20260831153105 60 195 2.0 6.0 0.00 0.00 0.00 86 1015.3
20260831152604 60 204 5.0 9.0 0.00 0.00 0.00 86 1015.2
20260831152104 61 137 5.0 8.0 0.00 0.00 0.00 85 1015.2
20260831151604 61 158 5.0 8.0 0.00 0.00 0.00 85 1015.2
20260831151105 61 211 4.0 9.0 0.00 0.00 0.00 84 1015.2
20260831150604 61 165 5.0 12.0 0.00 0.00 0.00 86 1015.3
20260831150105 61 168 4.0 7.0 0.00 0.00 0.00 85 1015.3
20260831145604 61 173 5.0 9.0 0.00 0.00 0.00 85 1015.3
20260831145104 61 144 6.0 10.0 0.00 0.00 0.00 85 1015.4
20260831144607 61 122 6.0 12.0 0.00 0.00 0.00 85 1015.3
20260831144105 61 133 5.0 12.0 0.00 0.00 0.00 85 1015.4
20260831143604 61 175 5.0 8.0 0.00 0.00 0.00 84 1015.3
20260831143105 62 350 4.0 9.0 0.00 0.00 0.00 85 1015.4
20260831142604 62 175 3.0 9.0 0.00 0.00 0.00 85 1015.3
20260831142105 61 164 3.0 9.0 0.00 0.00 0.00 85 1015.3
20260831141605 61 182 4.0 8.0 0.00 0.00 0.00 83 1015.3
20260831140604 63 147 4.0 8.0 0.00 0.00 0.00 81 1015.4
20260831140105 63 165 5.0 9.0 0.00 0.00 0.00 80 1015.4
20260831135604 63 171 4.0 9.0 0.00 0.00 0.00 81 1015.3
20260831134605 63 142 5.0 8.0 0.00 0.00 0.00 78 1015.3